Location: *
(2.7500°S, 66.6833°W)
Time: 04:51:17
(UTC+00:00)

Cosmos 1602 - Pass Details

Date: 24 May 2024
Orbit: 470 x 485 km, 82.5° (Epoch: 23 June)

Event Time Altitude Azimuth Distance (km) Brightness Sun altitude
Rises 23:32:49 0° 1° (N) 2,494 7.4 -17.1°
Reaches altitude 10° 23:34:54 10° 4° (N) 1,623 6.4 -17.6°
Maximum altitude 23:38:24 65° 86° (E) 521 3.4 -18.4°
Enters shadow 23:39:11 48° 144° (SE) 623 3.7 -18.6°
